CHEFSAT (43044 NORAD) Tracking and Keplerian Element Data

This shows tracking and keplerian element data for the satellite.

Feedback or suggestion? Click here.




ElementValue
Catalog43044
NameCHEFSAT
Epoch Orbit3384
Epoch Day195.84027234
Epoch Year2018
RAAN265.9704
Inclination51.6393
Eccentricity0.000527
Argument of Perigee10.0883
Mean Anonmoly350.0207
Mean Motion15.40020726
Decay Rate3.22E-05
L11 43044U 17071H 18195.84027234 .00003220 00000-0 89262-4 0 9993
L22 43044 51.6393 265.9704 0005270 10.0883 350.0207 15.40020726 33843

Live tracking and technical data element details for CHEFSAT (NORAD 43044). CHEFSAT can be tracked NOW for your location showing map with azimuth and elevation plus other details from your city location.

Track the satellite on the map from your city or location and see movement details for azimuth, elevation, latitude, longitude, range, height, and movement on the map or in text.







IsCatalogInMostPopularTable: catalog: 43044, numindb: 95
Update: records affected: 1



GetName: 43044 CHEFSAT

Hit Count: updated at: Sun, 15 Jul 2018 23:14:20 GMT